| time (UTC) | temp C | wind direction | speed KPH | gust KPH | rain 1hr cm | rain 24hr cm | rain mn cm | humidity % | barometer mb |
| 20260503195054 | 15 | 306 | 1.6 | 14.5 | 0.00 | 0.00 | 0.00 | 77 | 1013.7 |
| 20260503194559 | 15 | 309 | 1.6 | 14.5 | 0.00 | 0.00 | 0.00 | 78 | 1013.7 |
| 20260503194054 | 15 | 261 | 4.8 | 14.5 | 0.00 | 0.00 | 0.00 | 77 | 1013.8 |
| 20260503193554 | 15 | 0 | 1.6 | 12.9 | 0.00 | 0.00 | 0.00 | 78 | 1013.7 |
| 20260503193108 | 15 | 266 | 1.6 | 12.9 | 0.00 | 0.00 | 0.00 | 77 | 1013.7 |
| 20260503192553 | 15 | 0 | 3.2 | 12.9 | 0.00 | 0.00 | 0.00 | 77 | 1013.6 |
| 20260503192053 | 15 | 311 | 0.0 | 11.3 | 0.00 | 0.00 | 0.00 | 77 | 1013.7 |
| 20260503191559 | 15 | 315 | 1.6 | 12.9 | 0.00 | 0.00 | 0.00 | 77 | 1013.6 |
| 20260503191053 | 15 | 288 | 1.6 | 12.9 | 0.00 | 0.00 | 0.00 | 78 | 1013.7 |
| 20260503190555 | 15 | 295 | 1.6 | 11.3 | 0.00 | 0.00 | 0.00 | 78 | 1013.7 |
| 20260503190107 | 15 | 240 | 3.2 | 11.3 | 0.00 | 0.00 | 0.00 | 78 | 1013.8 |
| 20260503185555 | 15 | 227 | 1.6 | 11.3 | 0.00 | 0.00 | 0.00 | 80 | 1013.7 |
| 20260503185052 | 14 | 302 | 1.6 | 9.7 | 0.00 | 0.00 | 0.00 | 82 | 1013.7 |
| 20260503184556 | 14 | 267 | 1.6 | 11.3 | 0.00 | 0.00 | 0.00 | 83 | 1013.8 |
| 20260503184055 | 13 | 280 | 0.0 | 11.3 | 0.00 | 0.00 | 0.00 | 84 | 1013.7 |
| 20260503183555 | 13 | 234 | 1.6 | 11.3 | 0.00 | 0.00 | 0.00 | 84 | 1013.8 |
| 20260503183101 | 13 | 257 | 3.2 | 16.1 | 0.00 | 0.00 | 0.00 | 85 | 1013.7 |
| 20260503182554 | 13 | 275 | 3.2 | 16.1 | 0.00 | 0.00 | 0.00 | 85 | 1013.7 |
| 20260503182054 | 13 | 237 | 3.2 | 16.1 | 0.00 | 0.00 | 0.00 | 87 | 1013.8 |
| 20260503181552 | 13 | 296 | 3.2 | 12.9 | 0.00 | 0.00 | 0.00 | 87 | 1013.7 |
| 20260503181055 | 13 | 208 | 1.6 | 11.3 | 0.00 | 0.00 | 0.00 | 87 | 1013.8 |
| 20260503180557 | 13 | 221 | 3.2 | 11.3 | 0.00 | 0.00 | 0.00 | 87 | 1013.8 |
| 20260503180059 | 13 | 279 | 3.2 | 11.3 | 0.00 | 0.00 | 0.00 | 88 | 1013.7 |
| 20260503175555 | 13 | 0 | 1.6 | 12.9 | 0.00 | 0.00 | 0.00 | 88 | 1013.6 |
| 20260503175054 | 13 | 249 | 1.6 | 12.9 | 0.00 | 0.00 | 0.00 | 88 | 1013.6 |
| 20260503174557 | 13 | 231 | 3.2 | 8.0 | 0.00 | 0.00 | 0.00 | 88 | 1013.5 |
| 20260503174057 | 13 | 288 | 0.0 | 4.8 | 0.00 | 0.00 | 0.00 | 89 | 1013.5 |
| 20260503173555 | 13 | 217 | 0.0 | 8.0 | 0.00 | 0.00 | 0.00 | 87 | 1013.5 |
| 20260503173112 | 13 | 0 | 0.0 | 12.9 | 0.00 | 0.00 | 0.00 | 86 | 1013.5 |
| 20260503172552 | 13 | 0 | 1.6 | 12.9 | 0.00 | 0.00 | 0.00 | 84 | 1013.5 |
| 20260503172058 | 13 | 236 | 3.2 | 12.9 | 0.00 | 0.00 | 0.00 | 83 | 1013.6 |
| 20260503171557 | 13 | 211 | 3.2 | 12.9 | 0.00 | 0.00 | 0.00 | 82 | 1013.5 |
| 20260503171052 | 13 | 219 | 1.6 | 12.9 | 0.00 | 0.00 | 0.00 | 82 | 1013.5 |
| 20260503170555 | 13 | 0 | 3.2 | 12.9 | 0.00 | 0.00 | 0.00 | 83 | 1013.5 |
| 20260503150554 | 12 | 254 | 3.2 | 6.4 | 0.00 | 0.00 | 0.00 | 85 | 1012.9 |
| 20260503150110 | 12 | 238 | 1.6 | 6.4 | 0.00 | 0.00 | 0.00 | 85 | 1012.8 |
| 20260503140113 | 12 | 257 | 1.6 | 11.3 | 0.00 | 0.00 | 0.00 | 87 | 1012.1 |
| 20260503131051 | 12 | 228 | 0.0 | 4.8 | 0.00 | 0.00 | 0.00 | 87 | 1011.5 |
| 20260503130555 | 12 | 0 | 0.0 | 4.8 | 0.00 | 0.00 | 0.00 | 87 | 1011.5 |
| 20260503110558 | 12 | 0 | 3.2 | 8.0 | 0.00 | 0.00 | 0.00 | 87 | 1011.5 |
| 20260503100107 | 12 | 209 | 1.6 | 6.4 | 0.00 | 0.00 | 0.00 | 87 | 1011.6 |
| 20260503081606 | 12 | 360 | 4.8 | 14.5 | 0.00 | 0.00 | 0.00 | 87 | 1012.3 |
| 20260503081054 | 12 | 211 | 4.8 | 12.9 | 0.00 | 0.00 | 0.00 | 87 | 1012.2 |
| 20260503080554 | 12 | 225 | 1.6 | 8.0 | 0.00 | 0.00 | 0.00 | 86 | 1012.3 |
| 20260503072553 | 12 | 182 | 1.6 | 11.3 | 0.00 | 0.00 | 0.00 | 88 | 1012.3 |
| 20260503072056 | 12 | 250 | 3.2 | 12.9 | 0.00 | 0.00 | 0.00 | 87 | 1012.3 |
| 20260503071607 | 12 | 234 | 3.2 | 12.9 | 0.00 | 0.00 | 0.00 | 87 | 1012.3 |
| 20260503071053 | 12 | 360 | 3.2 | 12.9 | 0.00 | 0.00 | 0.00 | 87 | 1012.2 |
| 20260503070553 | 12 | 220 | 1.6 | 6.4 | 0.00 | 0.00 | 0.00 | 86 | 1012.2 |
| 20260503060106 | 12 | 254 | 0.0 | 4.8 | 0.00 | 0.00 | 0.00 | 85 | 1012.5 |
| 20260503055054 | 12 | 217 | 0.0 | 9.7 | 0.00 | 0.00 | 0.00 | 85 | 1012.5 |
| 20260503054604 | 12 | 0 | 3.2 | 9.7 | 0.00 | 0.00 | 0.00 | 85 | 1012.6 |
| 20260503054054 | 12 | 224 | 3.2 | 9.7 | 0.00 | 0.00 | 0.00 | 85 | 1012.6 |
| 20260503053553 | 12 | 201 | 0.0 | 9.7 | 0.00 | 0.00 | 0.00 | 85 | 1012.7 |
| 20260503053058 | 12 | 360 | 4.8 | 9.7 | 0.00 | 0.00 | 0.00 | 85 | 1012.7 |
| 20260503052554 | 12 | 222 | 1.6 | 9.7 | 0.00 | 0.00 | 0.00 | 85 | 1012.7 |
| 20260503052054 | 12 | 231 | 1.6 | 9.7 | 0.00 | 0.00 | 0.00 | 85 | 1012.8 |
| 20260503051601 | 12 | 229 | 1.6 | 11.3 | 0.00 | 0.00 | 0.00 | 86 | 1012.8 |
| 20260503051055 | 12 | 243 | 3.2 | 11.3 | 0.00 | 0.00 | 0.00 | 86 | 1012.7 |
| 20260503050559 | 12 | 249 | 1.6 | 12.9 | 0.00 | 0.00 | 0.00 | 86 | 1012.8 |
| 20260503050100 | 12 | 227 | 1.6 | 12.9 | 0.00 | 0.00 | 0.00 | 86 | 1012.7 |
| 20260503045553 | 12 | 219 | 3.2 | 12.9 | 0.00 | 0.00 | 0.00 | 87 | 1012.6 |
| 20260503045054 | 12 | 232 | 1.6 | 9.7 | 0.00 | 0.00 | 0.00 | 87 | 1012.6 |
| 20260503044556 | 12 | 232 | 4.8 | 11.3 | 0.00 | 0.00 | 0.00 | 87 | 1012.8 |
| 20260503044053 | 12 | 221 | 1.6 | 11.3 | 0.00 | 0.00 | 0.00 | 86 | 1012.6 |
| 20260503043556 | 12 | 210 | 1.6 | 8.0 | 0.00 | 0.00 | 0.00 | 86 | 1012.6 |
| 20260503043059 | 12 | 213 | 1.6 | 9.7 | 0.00 | 0.00 | 0.00 | 87 | 1012.6 |
| 20260503042555 | 12 | 259 | 1.6 | 9.7 | 0.00 | 0.00 | 0.00 | 87 | 1012.4 |
| 20260503042055 | 12 | 219 | 3.2 | 9.7 | 0.00 | 0.00 | 0.00 | 86 | 1012.4 |
| 20260503041558 | 12 | 231 | 3.2 | 9.7 | 0.00 | 0.00 | 0.00 | 86 | 1012.3 |
| 20260503041054 | 12 | 360 | 1.6 | 9.7 | 0.00 | 0.00 | 0.00 | 86 | 1012.3 |
| 20260503040553 | 12 | 249 | 1.6 | 11.3 | 0.00 | 0.00 | 0.00 | 86 | 1012.4 |
| 20260503040100 | 12 | 210 | 3.2 | 11.3 | 0.00 | 0.00 | 0.00 | 86 | 1012.4 |
| 20260503035554 | 12 | 0 | 4.8 | 11.3 | 0.00 | 0.00 | 0.00 | 86 | 1012.4 |
| 20260503035059 | 12 | 234 | 1.6 | 14.5 | 0.00 | 0.00 | 0.00 | 86 | 1012.4 |
| 20260503034558 | 12 | 227 | 1.6 | 14.5 | 0.00 | 0.00 | 0.00 | 86 | 1012.3 |
| 20260503034057 | 12 | 246 | 1.6 | 12.9 | 0.00 | 0.00 | 0.00 | 86 | 1012.2 |
| 20260503033556 | 12 | 261 | 3.2 | 12.9 | 0.00 | 0.00 | 0.00 | 86 | 1012.2 |
| 20260503033101 | 12 | 238 | 3.2 | 12.9 | 0.00 | 0.00 | 0.00 | 86 | 1012.1 |
| 20260503032558 | 12 | 266 | 3.2 | 12.9 | 0.00 | 0.00 | 0.00 | 86 | 1012.2 |
| 20260503032056 | 12 | 259 | 1.6 | 14.5 | 0.00 | 0.00 | 0.00 | 86 | 1012.0 |
| 20260503031603 | 12 | 236 | 1.6 | 14.5 | 0.00 | 0.00 | 0.00 | 86 | 1011.9 |
| 20260503031055 | 12 | 220 | 1.6 | 8.0 | 0.00 | 0.00 | 0.00 | 86 | 1011.9 |
| 20260503030556 | 12 | 273 | 3.2 | 14.5 | 0.00 | 0.00 | 0.00 | 86 | 1011.8 |
| 20260503030052 | 12 | 0 | 1.6 | 14.5 | 0.00 | 0.00 | 0.00 | 86 | 1011.7 |
| 20260503025557 | 12 | 229 | 4.8 | 14.5 | 0.00 | 0.00 | 0.00 | 86 | 1011.7 |
| 20260503025054 | 12 | 281 | 1.6 | 16.1 | 0.00 | 0.00 | 0.00 | 86 | 1011.7 |
| 20260503024601 | 12 | 301 | 1.6 | 16.1 | 0.00 | 0.00 | 0.00 | 86 | 1011.7 |
| 20260503024055 | 12 | 199 | 3.2 | 16.1 | 0.00 | 0.00 | 0.00 | 86 | 1011.8 |
| 20260503023555 | 12 | 194 | 3.2 | 14.5 | 0.00 | 0.00 | 0.00 | 85 | 1011.7 |
| 20260503023054 | 12 | 250 | 3.2 | 12.9 | 0.00 | 0.00 | 0.00 | 85 | 1011.7 |
| 20260503022554 | 12 | 267 | 3.2 | 14.5 | 0.00 | 0.00 | 0.00 | 85 | 1011.7 |
| 20260503022055 | 12 | 0 | 1.6 | 14.5 | 0.00 | 0.00 | 0.00 | 85 | 1011.8 |
| 20260503021558 | 12 | 224 | 3.2 | 14.5 | 0.00 | 0.00 | 0.00 | 85 | 1011.8 |
| 20260503021058 | 13 | 263 | 4.8 | 14.5 | 0.00 | 0.00 | 0.00 | 84 | 1011.7 |
| 20260503020555 | 13 | 289 | 1.6 | 16.1 | 0.00 | 0.00 | 0.00 | 84 | 1011.8 |
| 20260503020057 | 13 | 265 | 4.8 | 16.1 | 0.00 | 0.00 | 0.00 | 84 | 1011.8 |
| 20260503015555 | 13 | 0 | 3.2 | 14.5 | 0.00 | 0.00 | 0.00 | 85 | 1011.7 |
| 20260503015054 | 13 | 252 | 4.8 | 14.5 | 0.00 | 0.00 | 0.00 | 84 | 1011.8 |
| 20260503014622 | 13 | 216 | 3.2 | 11.3 | 0.00 | 0.00 | 0.00 | 84 | 1011.9 |
| 20260503014052 | 13 | 360 | 3.2 | 14.5 | 0.00 | 0.00 | 0.00 | 84 | 1011.9 |
| 20260503013552 | 13 | 360 | 3.2 | 16.1 | 0.00 | 0.00 | 0.00 | 84 | 1011.9 |
| 20260503013056 | 13 | 233 | 3.2 | 16.1 | 0.00 | 0.00 | 0.00 | 84 | 1012.0 |
| 20260503012558 | 13 | 245 | 4.8 | 19.3 | 0.00 | 0.00 | 0.00 | 84 | 1012.0 |
| 20260503012051 | 13 | 227 | 4.8 | 19.3 | 0.00 | 0.00 | 0.00 | 83 | 1012.1 |
| 20260503011611 | 13 | 206 | 3.2 | 16.1 | 0.00 | 0.00 | 0.00 | 83 | 1012.1 |
| 20260503011056 | 13 | 233 | 3.2 | 17.7 | 0.00 | 0.00 | 0.00 | 82 | 1012.1 |
| 20260503010556 | 13 | 253 | 4.8 | 19.3 | 0.00 | 0.00 | 0.00 | 82 | 1012.1 |
| 20260503010059 | 13 | 229 | 4.8 | 19.3 | 0.00 | 0.00 | 0.00 | 81 | 1012.1 |
| 20260503005556 | 13 | 360 | 4.8 | 17.7 | 0.00 | 0.00 | 0.00 | 81 | 1012.3 |
| 20260503005055 | 13 | 360 | 4.8 | 17.7 | 0.00 | 0.00 | 0.00 | 81 | 1012.2 |
| 20260503004604 | 13 | 0 | 4.8 | 19.3 | 0.00 | 0.00 | 0.00 | 80 | 1012.2 |
| 20260503004055 | 13 | 360 | 8.0 | 19.3 | 0.00 | 0.00 | 0.00 | 80 | 1012.2 |
| 20260503003555 | 13 | 215 | 6.4 | 17.7 | 0.00 | 0.00 | 0.00 | 79 | 1012.2 |
| 20260503003100 | 13 | 250 | 6.4 | 17.7 | 0.00 | 0.00 | 0.00 | 79 | 1012.3 |
| 20260503002557 | 14 | 216 | 4.8 | 19.3 | 0.00 | 0.00 | 0.00 | 80 | 1012.3 |
| 20260503002052 | 14 | 205 | 4.8 | 19.3 | 0.00 | 0.00 | 0.00 | 80 | 1012.4 |
| 20260503001557 | 14 | 232 | 4.8 | 22.5 | 0.00 | 0.00 | 0.00 | 80 | 1012.3 |
| 20260503001054 | 14 | 227 | 6.4 | 22.5 | 0.00 | 0.00 | 0.00 | 78 | 1012.3 |
| 20260503000554 | 14 | 224 | 4.8 | 20.9 | 0.00 | 0.00 | 0.00 | 79 | 1012.4 |
| 20260503000103 | 14 | 269 | 4.8 | 17.7 | 0.00 | 0.00 | 0.00 | 77 | 1012.4 |
| 20260502235554 | 15 | 245 | 4.8 | 17.7 | 0.00 | 0.00 | 0.00 | 77 | 1012.5 |
| 20260502235053 | 15 | 308 | 6.4 | 17.7 | 0.00 | 0.00 | 0.00 | 76 | 1012.5 |
| 20260502234556 | 15 | 249 | 4.8 | 14.5 | 0.00 | 0.00 | 0.00 | 77 | 1012.5 |
| 20260502234056 | 15 | 242 | 6.4 | 14.5 | 0.00 | 0.00 | 0.00 | 76 | 1012.5 |
| 20260502233556 | 15 | 202 | 3.2 | 14.5 | 0.00 | 0.00 | 0.00 | 77 | 1012.5 |
| 20260502233055 | 15 | 219 | 3.2 | 20.9 | 0.00 | 0.00 | 0.00 | 77 | 1012.6 |
| 20260502232555 | 15 | 265 | 6.4 | 20.9 | 0.00 | 0.00 | 0.00 | 75 | 1012.6 |
| 20260502232055 | 15 | 227 | 4.8 | 19.3 | 0.00 | 0.00 | 0.00 | 75 | 1012.7 |
| 20260502231554 | 15 | 237 | 4.8 | 19.3 | 0.00 | 0.00 | 0.00 | 74 | 1012.7 |
| 20260502231055 | 15 | 238 | 4.8 | 17.7 | 0.00 | 0.00 | 0.00 | 74 | 1012.9 |
| 20260502230554 | 16 | 217 | 3.2 | 17.7 | 0.00 | 0.00 | 0.00 | 74 | 1012.9 |
| 20260502230055 | 16 | 0 | 4.8 | 17.7 | 0.00 | 0.00 | 0.00 | 73 | 1013.0 |
| 20260502225554 | 15 | 237 | 6.4 | 17.7 | 0.00 | 0.00 | 0.00 | 74 | 1013.1 |
| 20260502225052 | 15 | 260 | 1.6 | 14.5 | 0.00 | 0.00 | 0.00 | 76 | 1013.2 |
| 20260502224608 | 15 | 241 | 4.8 | 14.5 | 0.00 | 0.00 | 0.00 | 76 | 1013.2 |
| 20260502224056 | 15 | 0 | 3.2 | 16.1 | 0.00 | 0.00 | 0.00 | 76 | 1013.3 |
| 20260502223552 | 15 | 266 | 1.6 | 19.3 | 0.00 | 0.00 | 0.00 | 76 | 1013.3 |
| 20260502223055 | 15 | 210 | 3.2 | 19.3 | 0.00 | 0.00 | 0.00 | 76 | 1013.5 |
| 20260502222556 | 15 | 271 | 4.8 | 17.7 | 0.00 | 0.00 | 0.00 | 76 | 1013.5 |
| 20260502222053 | 15 | 253 | 4.8 | 17.7 | 0.00 | 0.00 | 0.00 | 76 | 1013.6 |
| 20260502221556 | 15 | 244 | 3.2 | 16.1 | 0.00 | 0.00 | 0.00 | 76 | 1013.6 |
| 20260502221054 | 15 | 0 | 4.8 | 16.1 | 0.00 | 0.00 | 0.00 | 77 | 1013.7 |
| 20260502220556 | 15 | 0 | 3.2 | 17.7 | 0.00 | 0.00 | 0.00 | 78 | 1013.8 |
| 20260502220054 | 15 | 296 | 3.2 | 17.7 | 0.00 | 0.00 | 0.00 | 79 | 1013.8 |
| 20260502215556 | 15 | 267 | 4.8 | 17.7 | 0.00 | 0.00 | 0.00 | 78 | 1013.8 |
| 20260502215057 | 14 | 286 | 1.6 | 14.5 | 0.00 | 0.00 | 0.00 | 79 | 1013.7 |
| 20260502214555 | 14 | 291 | 3.2 | 16.1 | 0.00 | 0.00 | 0.00 | 79 | 1013.8 |
| 20260502214052 | 14 | 206 | 3.2 | 16.1 | 0.00 | 0.00 | 0.00 | 80 | 1013.8 |
| 20260502213556 | 14 | 193 | 3.2 | 16.1 | 0.00 | 0.00 | 0.00 | 80 | 1013.8 |
| 20260502213108 | 14 | 0 | 3.2 | 17.7 | 0.00 | 0.00 | 0.00 | 79 | 1013.8 |
| 20260502212552 | 14 | 268 | 3.2 | 17.7 | 0.00 | 0.00 | 0.00 | 79 | 1013.9 |
| 20260502212055 | 14 | 204 | 4.8 | 14.5 | 0.00 | 0.00 | 0.00 | 79 | 1013.8 |
| 20260502211620 | 14 | 239 | 3.2 | 17.7 | 0.00 | 0.00 | 0.00 | 79 | 1013.9 |
| 20260502211051 | 14 | 218 | 4.8 | 17.7 | 0.00 | 0.00 | 0.00 | 79 | 1014.0 |
| 20260502210551 | 14 | 281 | 3.2 | 16.1 | 0.00 | 0.00 | 0.00 | 80 | 1014.0 |
| 20260502210056 | 14 | 218 | 4.8 | 16.1 | 0.00 | 0.00 | 0.00 | 79 | 1014.0 |
| 20260502205552 | 14 | 202 | 3.2 | 17.7 | 0.00 | 0.00 | 0.00 | 79 | 1014.2 |
| 20260502205055 | 14 | 236 | 3.2 | 17.7 | 0.00 | 0.00 | 0.00 | 78 | 1014.2 |
| 20260502204554 | 15 | 177 | 6.4 | 14.5 | 0.00 | 0.00 | 0.00 | 77 | 1014.1 |
| 20260502204056 | 15 | 263 | 4.8 | 14.5 | 0.00 | 0.00 | 0.00 | 78 | 1014.2 |
| 20260502203555 | 14 | 0 | 3.2 | 19.3 | 0.00 | 0.00 | 0.00 | 79 | 1014.2 |
| 20260502203105 | 14 | 224 | 6.4 | 19.3 | 0.00 | 0.00 | 0.00 | 79 | 1014.3 |
| 20260502202552 | 14 | 225 | 8.0 | 17.7 | 0.00 | 0.00 | 0.00 | 80 | 1014.3 |
| 20260502202056 | 14 | 194 | 8.0 | 20.9 | 0.00 | 0.00 | 0.00 | 80 | 1014.4 |
| 20260502201559 | 14 | 360 | 6.4 | 20.9 | 0.00 | 0.00 | 0.00 | 80 | 1014.3 |
| 20260502201052 | 14 | 191 | 8.0 | 16.1 | 0.00 | 0.00 | 0.00 | 80 | 1014.4 |
| 20260502200556 | 13 | 360 | 8.0 | 19.3 | 0.00 | 0.00 | 0.00 | 80 | 1014.4 |
| 20260502200105 | 13 | 230 | 8.0 | 19.3 | 0.00 | 0.00 | 0.00 | 81 | 1014.4 |
| 20260502195551 | 13 | 242 | 6.4 | 20.9 | 0.00 | 0.00 | 0.00 | 81 | 1014.5 |